Wind_Speed
38 41 41 39 38 36 34 33 32 32 31 29 28 28 29 29 28 28 29 30 31 32 33 34 35 35 35 37 38 40 41 42 43 44 45 46 46 46 47 48 49 51 53
39 41 40 39 38 37 35 33 33 33 31 29 28 28 29 29 29 29 30 31 32 33 34 35 36 37 38 39 41 42 44 45 45 45 45 45 45 47 48 50 52 55 57
41 41 40 38 38 38 36 35 34 33 32 30 28 28 29 30 30 30 31 32 33 34 36 37 38 39 40 42 43 44 46 47 48 48 48 48 47 47 48 51 55 58 61
44 43 41 38 37 37 37 36 35 34 32 30 28 28 29 30 31 31 32 33 35 36 38 39 40 41 43 44 45 46 48 48 49 50 51 53 54 54 53 53 57 60 62
45 43 40 38 38 38 37 36 35 34 32 30 29 28 29 29 31 32 33 34 36 38 40 41 42 44 45 46 47 49 49 50 51 52 54 56 58 61 62 60 61 62 64
45 43 41 39 38 38 37 36 35 34 32 31 29 29 29 30 31 32 34 35 37 39 40 42 44 45 46 47 49 50 51 52 53 55 57 59 61 64 66 66 66 66 66
46 44 42 40 38 38 37 35 34 33 32 31 30 30 30 30 31 33 35 36 38 39 41 43 45 46 47 49 50 51 52 54 56 58 61 63 66 68 70 71 71 70 70
47 45 42 41 39 39 37 35 34 33 32 31 31 30 30 31 33 34 36 37 38 40 42 44 46 47 48 50 51 53 54 57 59 61 64 66 69 71 73 74 75 74 73
46 44 43 42 40 39 38 36 35 34 33 32 31 31 31 32 33 35 36 37 39 41 42 44 46 48 49 51 53 55 57 59 62 64 66 69 71 73 75 76 77 79 79
44 42 42 41 40 39 38 36 35 34 33 32 32 32 32 33 34 35 36 38 39 41 43 45 47 49 51 53 55 57 59 61 64 66 69 71 73 74 75 77 80 84 88
40 40 40 40 39 39 38 36 35 34 33 32 32 32 32 33 34 35 36 38 40 42 44 46 49 51 53 55 57 59 61 64 66 69 71 73 73 75 77 81 85 91 97
38 38 39 39 39 38 37 36 35 33 33 32 32 32 32 33 33 35 37 39 41 43 45 47 50 52 55 57 59 61 64 66 69 71 72 73 75 78 82 86 92 98 104
37 37 38 38 38 37 36 35 34 33 32 32 31 31 32 33 34 36 38 40 42 44 46 49 51 54 56 58 61 64 66 69 70 72 73 75 78 82 87 93 98 104 109
37 37 37 36 36 35 34 34 33 32 31 30 30 31 31 33 35 37 39 41 43 45 48 51 53 56 58 61 63 66 68 70 71 73 75 79 83 89 94 99 105 109 111
34 34 34 33 33 33 32 31 30 30 29 29 29 30 31 33 35 38 40 42 44 47 50 53 55 58 60 63 66 68 69 70 71 74 78 83 89 95 100 105 108 108 105
31 30 30 30 30 30 29 28 28 28 28 28 29 30 32 34 36 38 41 43 46 49 52 55 57 60 63 65 67 68 69 71 74 78 83 89 95 100 104 107 105 99 91
28 28 28 28 28 27 26 26 26 26 26 27 29 31 32 34 37 39 42 45 49 51 54 56 59 62 64 66 67 68 70 74 79 84 89 94 100 104 105 101 93 82 72
26 26 25 25 24 24 23 23 24 24 26 28 29 31 33 35 38 41 44 47 50 53 55 58 61 63 64 65 66 69 73 78 84 89 94 99 102 102 99 91 78 66 57
22 22 21 21 21 20 21 21 23 25 26 28 29 31 34 37 40 43 46 48 51 54 57 59 61 62 63 65 68 73 77 82 88 93 98 101 101 96 88 76 63 53 47
18 18 18 18 18 19 20 22 23 24 26 28 30 33 36 39 41 44 47 50 53 55 58 59 60 61 64 67 72 77 82 87 91 96 99 99 93 83 72 61 51 44 39
15 16 16 17 18 19 20 21 23 25 27 29 32 35 38 40 42 45 48 51 54 55 56 57 60 63 67 72 77 83 88 91 95 97 95 89 80 68 58 49 42 37 34
14 16 16 17 18 19 20 22 24 26 28 31 34 36 38 41 44 46 49 51 53 53 55 57 62 67 72 76 81 87 91 95 96 93 86 76 64 55 47 40 36 33 31
14 15 15 16 17 19 20 22 25 27 29 32 34 36 39 42 45 47 49 50 51 53 56 60 65 70 75 80 85 89 93 94 91 83 72 62 52 44 38 35 32 29 28
13 14 15 16 17 19 21 23 26 28 30 33 35 37 40 43 45 47 48 49 52 56 60 64 68 73 79 84 88 91 92 89 80 69 59 50 42 37 33 31 29 28 29
12 13 14 16 18 20 22 25 27 29 31 33 36 39 41 43 44 45 47 51 55 59 63 68 73 78 83 88 91 92 88 78 67 56 46 39 34 31 31 30 30 31 30
12 14 15 17 20 22 24 26 28 30 32 35 38 40 41 42 43 46 49 54 58 63 68 74 79 84 88 91 90 85 75 64 55 45 37 31 29 28 27 28 30 30 30
Wind_Direction
244 244 246 246 245 245 247 248 247 246 247 249 250 250 249 250 253 257 260 264 269 273 278 283 286 287 289 291 292 294 295 295 295 296 296 296 295 294 293 293 293 293 292
246 245 245 244 243 243 245 247 248 247 247 248 249 251 251 251 253 257 261 265 270 275 280 284 286 288 290 292 293 295 296 296 297 296 295 294 293 294 295 295 295 295 295
244 244 244 243 242 242 244 246 248 247 247 247 249 251 251 252 254 258 262 266 272 276 281 285 287 289 291 293 294 296 297 297 297 296 295 293 292 291 292 293 294 294 295
243 242 241 241 240 240 242 245 247 247 247 247 248 249 250 252 256 259 263 268 273 277 282 285 288 290 292 294 295 297 298 298 298 297 297 296 296 295 293 292 292 293 294
242 241 239 237 237 238 240 243 246 247 247 248 248 250 252 254 257 261 265 269 274 279 282 285 289 291 293 295 297 298 299 299 299 298 298 298 298 298 297 296 295 295 296
239 238 236 234 234 236 238 241 244 246 246 248 249 251 253 257 260 263 267 271 275 279 283 287 290 292 294 296 298 299 299 300 300 299 299 298 298 297 298 297 297 297 297
236 235 233 232 232 233 235 239 242 244 245 247 249 252 255 259 262 265 269 273 276 280 284 288 291 294 296 298 299 299 300 300 300 300 300 300 300 300 300 300 299 299 298
233 232 230 228 227 229 232 236 239 242 244 246 249 252 256 260 264 267 271 274 278 282 286 290 293 295 297 298 299 299 300 300 300 300 300 301 301 302 302 301 301 300 299
229 228 226 224 224 225 229 233 237 241 244 247 250 254 257 261 265 269 273 277 281 285 289 292 294 296 298 299 299 300 300 301 301 301 302 302 303 303 303 303 303 302 301
222 221 220 220 221 223 227 231 236 240 244 248 251 255 259 263 267 271 275 279 284 288 291 293 295 297 298 299 300 301 301 302 302 303 303 304 304 304 304 304 305 305 305
215 214 214 215 218 222 227 231 236 240 244 248 252 256 261 265 270 274 279 283 287 290 292 294 296 297 299 300 301 302 303 303 304 304 305 305 305 305 306 306 306 307 306
207 208 208 211 216 222 227 231 235 239 243 248 253 258 263 268 273 278 282 286 289 291 293 295 297 298 300 301 302 303 304 304 305 305 306 306 306 307 307 308 308 308 308
199 201 204 209 215 221 225 229 233 238 243 249 254 260 266 271 276 280 284 287 290 293 295 297 298 300 301 302 303 304 305 306 306 306 307 308 308 309 309 309 310 310 310
194 197 202 208 214 219 223 227 232 238 244 250 256 263 268 274 279 283 286 289 292 294 296 298 300 301 302 304 305 305 306 307 308 308 309 310 310 310 311 311 311 311 311
192 196 201 206 211 216 221 227 233 239 246 252 259 266 272 277 281 284 288 291 294 296 298 300 301 303 304 305 306 306 307 308 309 310 311 311 312 312 313 313 313 313 312
190 193 198 203 208 214 220 226 233 241 248 256 263 270 275 279 283 287 291 293 296 297 300 302 303 304 305 306 307 308 309 310 311 311 312 313 313 314 314 315 315 314 314
187 192 196 201 207 214 221 228 236 245 254 262 268 273 278 283 287 290 293 296 298 300 302 303 305 306 307 308 309 310 311 312 312 313 313 314 315 315 315 315 315 314 313
185 191 197 203 211 219 227 235 245 253 260 267 272 277 282 286 290 293 295 298 300 302 303 305 306 307 308 309 310 311 312 313 314 315 315 316 316 316 316 316 315 314 314
188 194 202 209 218 226 235 244 252 260 266 272 277 282 286 289 293 295 298 300 302 303 304 306 307 308 310 311 311 312 314 315 315 316 316 317 317 316 316 316 316 316 316
194 202 210 218 227 237 246 253 260 266 272 277 282 286 289 293 295 298 300 301 303 304 306 307 309 310 311 312 312 314 315 316 317 317 317 318 317 317 317 317 317 317 317
207 216 225 233 241 249 255 261 267 272 277 282 286 290 292 295 297 299 301 303 304 306 308 309 310 311 312 314 315 317 317 318 318 318 318 318 317 317 317 318 319 320 320
225 233 239 245 251 258 263 268 273 278 283 286 289 292 295 297 300 301 303 305 306 308 309 311 312 313 314 316 317 318 318 319 319 319 319 318 317 317 318 319 320 321 322
237 243 248 254 260 265 270 275 280 284 287 290 293 296 298 300 302 304 305 307 308 310 311 312 313 314 316 317 318 319 319 319 320 320 318 318 318 318 319 320 322 322 322
245 250 256 261 267 272 277 281 285 288 291 294 297 299 301 303 304 306 307 309 310 311 312 313 315 316 317 318 319 319 320 320 320 319 318 318 319 320 321 322 324 324 324
252 258 264 270 275 280 284 287 290 293 296 298 300 302 304 305 307 308 309 310 311 312 314 315 317 318 318 319 320 321 321 321 320 320 320 320 321 323 324 326 327 327 327
263 269 275 280 284 286 289 292 294 297 299 301 303 305 307 308 309 310 311 312 314 315 317 318 319 320 320 321 321 322 322 322 322 322 323 323 324 325 326 327 328 328 328
Height
5731 5733 5736 5741 5745 5748 5750 5751 5753 5755 5757 5758 5759 5760 5761 5762 5764 5765 5766 5766 5766 5765 5764 5762 5760 5758 5756 5754 5752 5749 5746 5743 5740 5737 5733 5728 5724 5720 5716 5713 5708 5704 5700
5722 5725 5728 5732 5737 5740 5742 5744 5746 5748 5750 5752 5753 5754 5755 5756 5758 5759 5759 5759 5759 5758 5756 5755 5753 5751 5749 5746 5743 5740 5736 5733 5729 5726 5723 5720 5716 5710 5706 5701 5696 5692 5687
5713 5716 5720 5724 5728 5732 5735 5737 5739 5741 5743 5745 5746 5748 5749 5750 5751 5752 5752 5752 5751 5750 5749 5747 5745 5742 5740 5737 5734 5730 5726 5722 5718 5714 5710 5707 5705 5703 5700 5693 5686 5680 5674
5703 5706 5711 5716 5720 5723 5727 5730 5732 5734 5736 5738 5740 5741 5742 5743 5744 5745 5745 5744 5743 5742 5741 5739 5736 5734 5731 5727 5724 5720 5715 5710 5706 5701 5696 5692 5688 5685 5685 5683 5675 5668 5662
5693 5698 5703 5708 5711 5715 5719 5722 5725 5727 5729 5731 5733 5734 5735 5736 5737 5737 5737 5736 5736 5734 5732 5730 5727 5724 5721 5717 5713 5708 5703 5699 5694 5689 5684 5679 5673 5667 5663 5663 5660 5654 5646
5683 5688 5693 5698 5703 5707 5711 5715 5718 5720 5722 5724 5725 5727 5728 5729 5729 5729 5729 5729 5727 5726 5724 5721 5718 5714 5710 5706 5701 5696 5691 5686 5681 5675 5670 5665 5659 5653 5646 5643 5639 5636 5630
5672 5678 5684 5690 5695 5700 5704 5707 5710 5713 5715 5717 5718 5720 5721 5721 5721 5721 5721 5720 5719 5717 5715 5712 5708 5704 5700 5695 5690 5684 5679 5673 5668 5662 5655 5649 5642 5635 5628 5623 5619 5615 5610
5661 5668 5675 5681 5687 5691 5696 5700 5703 5706 5708 5710 5711 5712 5713 5714 5714 5713 5713 5712 5710 5708 5705 5702 5698 5693 5689 5683 5678 5673 5667 5661 5654 5648 5641 5634 5626 5618 5610 5602 5596 5593 5591
5649 5657 5665 5672 5678 5683 5688 5692 5695 5698 5701 5703 5704 5705 5706 5706 5706 5705 5705 5703 5701 5699 5696 5692 5687 5683 5678 5672 5667 5661 5654 5648 5641 5634 5626 5618 5610 5601 5592 5582 5573 5565 5562
5638 5647 5656 5663 5670 5675 5680 5685 5688 5691 5694 5696 5697 5698 5698 5698 5698 5697 5696 5694 5692 5690 5686 5682 5677 5672 5667 5661 5655 5649 5642 5635 5627 5619 5611 5602 5594 5584 5574 5564 5554 5542 5532
5630 5639 5648 5656 5663 5668 5673 5678 5681 5684 5687 5689 5690 5690 5690 5690 5690 5689 5688 5686 5683 5680 5676 5671 5666 5661 5655 5649 5643 5635 5628 5621 5612 5604 5596 5586 5577 5567 5556 5546 5534 5521 5506
5623 5632 5641 5649 5656 5662 5667 5671 5675 5678 5680 5681 5682 5683 5683 5683 5682 5681 5679 5677 5674 5670 5666 5661 5655 5649 5643 5637 5630 5622 5614 5606 5598 5589 5580 5570 5560 5550 5538 5526 5513 5498 5481
5617 5626 5635 5642 5649 5656 5661 5665 5668 5671 5673 5675 5675 5676 5676 5675 5674 5673 5671 5668 5664 5660 5656 5650 5644 5638 5631 5624 5617 5609 5601 5592 5583 5573 5564 5553 5543 5531 5519 5505 5490 5474 5456
5613 5622 5630 5638 5644 5650 5655 5659 5662 5665 5667 5668 5669 5669 5668 5668 5666 5664 5662 5658 5655 5650 5645 5639 5633 5626 5619 5611 5604 5595 5586 5577 5567 5557 5547 5536 5523 5511 5497 5482 5465 5447 5429
5611 5619 5627 5634 5640 5645 5650 5654 5657 5659 5660 5661 5662 5662 5661 5660 5658 5656 5653 5649 5644 5639 5634 5627 5621 5614 5606 5598 5589 5581 5572 5562 5552 5541 5529 5517 5503 5488 5472 5455 5438 5419 5400
5610 5617 5624 5630 5636 5641 5645 5648 5651 5653 5654 5655 5655 5655 5654 5652 5650 5647 5643 5639 5634 5628 5622 5616 5609 5601 5593 5584 5575 5566 5557 5547 5536 5524 5512 5498 5482 5466 5450 5431 5412 5392 5374
5610 5616 5622 5627 5632 5637 5640 5643 5645 5647 5648 5649 5648 5648 5646 5644 5641 5637 5633 5628 5623 5617 5610 5603 5596 5588 5579 5570 5561 5552 5542 5531 5518 5505 5492 5477 5460 5442 5426 5410 5393 5376 5359
5609 5615 5620 5625 5629 5633 5636 5638 5640 5641 5642 5642 5641 5640 5638 5635 5632 5628 5623 5618 5612 5605 5598 5591 5583 5575 5566 5557 5547 5538 5527 5514 5500 5485 5470 5455 5439 5420 5404 5390 5376 5361 5348
5610 5615 5619 5623 5626 5629 5632 5634 5635 5635 5635 5635 5634 5632 5629 5626 5622 5618 5612 5607 5600 5594 5587 5579 5571 5563 5554 5544 5533 5522 5511 5498 5483 5466 5448 5432 5417 5400 5384 5370 5359 5349 5338
5610 5614 5618 5621 5623 5626 5627 5628 5629 5629 5628 5627 5626 5623 5620 5617 5612 5607 5602 5596 5589 5582 5575 5566 5558 5550 5541 5530 5519 5506 5495 5481 5466 5448 5428 5409 5393 5378 5364 5354 5346 5338 5330
5609 5612 5615 5618 5619 5621 5622 5622 5623 5622 5621 5620 5617 5615 5611 5607 5602 5597 5591 5585 5578 5571 5563 5555 5546 5536 5526 5515 5502 5487 5473 5458 5444 5426 5409 5391 5375 5362 5352 5343 5336 5329 5322
5607 5610 5612 5613 5615 5616 5616 5617 5616 5616 5614 5612 5609 5606 5602 5597 5592 5587 5581 5574 5567 5559 5551 5543 5533 5521 5509 5497 5485 5470 5453 5436 5421 5405 5389 5374 5361 5351 5342 5335 5328 5322 5316
5604 5606 5608 5609 5610 5611 5611 5611 5610 5608 5606 5604 5600 5597 5593 5588 5582 5576 5570 5563 5555 5548 5539 5530 5520 5509 5495 5482 5468 5453 5436 5418 5402 5387 5372 5360 5350 5342 5334 5328 5322 5317 5311
5601 5602 5604 5605 5605 5605 5605 5604 5603 5601 5598 5595 5592 5588 5583 5578 5572 5566 5559 5551 5544 5536 5527 5517 5506 5495 5481 5466 5452 5436 5419 5403 5387 5373 5360 5349 5341 5334 5327 5322 5316 5311 5305
5598 5599 5600 5600 5600 5600 5599 5598 5596 5593 5591 5587 5583 5579 5574 5568 5562 5555 5548 5541 5532 5523 5513 5503 5491 5478 5465 5448 5432 5415 5399 5384 5371 5360 5350 5342 5334 5328 5322 5316 5310 5305 5299
5595 5596 5596 5596 5595 5594 5593 5591 5589 5586 5583 5579 5574 5569 5564 5558 5552 5545 5537 5528 5519 5509 5497 5485 5472 5458 5443 5427 5412 5396 5380 5367 5357 5348 5341 5335 5329 5323 5318 5312 5306 5300 5295